• In Deutschland
  • Länderverzeichnis
  • Für 7 Tage
  • Wassertemperatur
  • Satellitenkarten
  • Wetterkarte
  • Widgets
  • user-avatar
    Anmelden

    Stündliche Wetter Butiá

    Heute, 21 September, Freitag

    Zeit Temperatur Niederschläge Wind Luftdruck Luftfeuchtigkeit
    00:00 +18°C° 0 mm 2 m/S 755 mmHg 97%
    01:00 +18°C° 0 mm 2 m/S 755 mmHg 97%
    02:00 +19°C° 0 mm 1 m/S 755 mmHg 97%
    03:00 +19°C° 0 mm 1 m/S 755 mmHg 95%
    04:00 +19°C° 0 mm 1 m/S 755 mmHg 96%
    05:00 +19°C° 0 mm 1 m/S 755 mmHg 96%
    06:00 +19°C° 0 mm 1 m/S 754 mmHg 97%
    07:00 +20°C° 0 mm 1 m/S 755 mmHg 93%
    08:00 +21°C° 0 mm 1 m/S 755 mmHg 90%
    09:00 +23°C° 0 mm 1 m/S 755 mmHg 84%
    10:00 +24°C° 0 mm 1 m/S 755 mmHg 78%
    11:00 +26°C° 0 mm 1 m/S 755 mmHg 73%
    12:00 +28°C° 0 mm 1 m/S 755 mmHg 67%
    13:00 +29°C° 0 mm 1 m/S 754 mmHg 64%
    14:00 +29°C° 0 mm 1 m/S 754 mmHg 61%
    15:00 +30°C° 0 mm 1 m/S 753 mmHg 58%
    16:00 +28°C° 0 mm 1 m/S 753 mmHg 65%
    17:00 +27°C° 0 mm 1 m/S 753 mmHg 71%
    18:00 +26°C° 0 mm 1 m/S 753 mmHg 78%
    19:00 +24°C° 0 mm 1 m/S 753 mmHg 82%
    20:00 +23°C° 0 mm 1 m/S 753 mmHg 85%
    21:00 +22°C° 0 mm 1 m/S 754 mmHg 89%
    22:00 +22°C° 0 mm 1 m/S 754 mmHg 91%
    23:00 +21°C° 0 mm 1 m/S 754 mmHg 93%

    Morgen, 22 September, Samstag

    Zeit Temperatur Niederschläge Wind Luftdruck Luftfeuchtigkeit
    00:00 +19°C° 0 mm 0 m/S 754 mmHg 94%
    01:00 +19°C° 0 mm 0 m/S 754 mmHg 95%
    02:00 +19°C° 0 mm 0 m/S 754 mmHg 95%
    03:00 +18°C° 0 mm 0 m/S 753 mmHg 95%
    04:00 +20°C° 0 mm 1 m/S 753 mmHg 96%
    05:00 +20°C° 0 mm 1 m/S 753 mmHg 96%
    06:00 +20°C° 0 mm 1 m/S 753 mmHg 96%
    07:00 +22°C° 0 mm 1 m/S 754 mmHg 89%
    08:00 +24°C° 0 mm 1 m/S 754 mmHg 83%
    09:00 +26°C° 0 mm 1 m/S 754 mmHg 76%
    10:00 +28°C° 0 mm 1 m/S 754 mmHg 70%
    11:00 +29°C° 0 mm 2 m/S 754 mmHg 63%
    12:00 +31°C° 0 mm 2 m/S 753 mmHg 57%
    13:00 +32°C° 0 mm 2 m/S 752 mmHg 54%
    14:00 +32°C° 0 mm 1 m/S 752 mmHg 51%
    15:00 +33°C° 0 mm 1 m/S 751 mmHg 49%
    16:00 +31°C° 0 mm 1 m/S 751 mmHg 55%
    17:00 +30°C° 0 mm 1 m/S 751 mmHg 61%
    18:00 +28°C° 0 mm 1 m/S 750 mmHg 68%
    19:00 +27°C° 0 mm 1 m/S 751 mmHg 72%
    20:00 +25°C° 0 mm 1 m/S 751 mmHg 77%
    21:00 +24°C° 0 mm 1 m/S 751 mmHg 82%
    22:00 +23°C° 0 mm 1 m/S 751 mmHg 84%
    23:00 +23°C° 0 mm 1 m/S 751 mmHg 85%

    übermorgen, 23 September, Sonntag

    Zeit Temperatur Niederschläge Wind Luftdruck Luftfeuchtigkeit
    00:00 +22°C° 0 mm 1 m/S 751 mmHg 87%
    01:00 +22°C° 0 mm 1 m/S 750 mmHg 86%
    02:00 +21°C° 0 mm 2 m/S 750 mmHg 84%
    03:00 +21°C° 0 mm 2 m/S 750 mmHg 82%
    04:00 +23°C° 0 mm 2 m/S 750 mmHg 82%
    05:00 +23°C° 0 mm 1 m/S 751 mmHg 82%
    06:00 +23°C° 0 mm 1 m/S 751 mmHg 82%
    07:00 +23°C° 1.5 mm 1 m/S 752 mmHg 84%
    08:00 +24°C° 1.5 mm 2 m/S 752 mmHg 86%
    09:00 +24°C° 1.5 mm 2 m/S 753 mmHg 88%
    10:00 +26°C° 0 mm 2 m/S 753 mmHg 83%
    11:00 +27°C° 0 mm 1 m/S 752 mmHg 78%
    12:00 +29°C° 0 mm 1 m/S 752 mmHg 73%
    13:00 +30°C° 0.5 mm 1 m/S 751 mmHg 73%
    14:00 +30°C° 0.5 mm 1 m/S 751 mmHg 72%
    15:00 +29°C° 0.5 mm 0 m/S 750 mmHg 71%
    16:00 +29°C° 1.6 mm 1 m/S 750 mmHg 77%
    17:00 +28°C° 1.6 mm 1 m/S 750 mmHg 83%
    18:00 +26°C° 1.6 mm 2 m/S 751 mmHg 88%
    19:00 +25°C° 5.8 mm 2 m/S 751 mmHg 90%
    20:00 +24°C° 5.8 mm 3 m/S 752 mmHg 91%
    21:00 +22°C° 5.8 mm 3 m/S 752 mmHg 92%
    22:00 +22°C° 1.9 mm 3 m/S 752 mmHg 93%
    23:00 +23°C° 1.9 mm 2 m/S 753 mmHg 94%

    24 September, Montag

    Zeit Temperatur Niederschläge Wind Luftdruck Luftfeuchtigkeit
    00:00 +23°C° 1.9 mm 2 m/S 753 mmHg 95%
    01:00 +23°C° 0.5 mm 2 m/S 752 mmHg 95%
    02:00 +23°C° 0.5 mm 2 m/S 752 mmHg 95%
    03:00 +23°C° 0.5 mm 2 m/S 752 mmHg 95%
    04:00 +23°C° 0.4 mm 1 m/S 752 mmHg 95%
    05:00 +23°C° 0.4 mm 1 m/S 752 mmHg 95%
    06:00 +23°C° 0.4 mm 1 m/S 752 mmHg 96%
    07:00 +23°C° 0.1 mm 1 m/S 753 mmHg 95%
    08:00 +24°C° 0.1 mm 2 m/S 754 mmHg 95%
    09:00 +24°C° 0.1 mm 2 m/S 755 mmHg 94%
    10:00 +24°C° 0.1 mm 2 m/S 755 mmHg 93%
    11:00 +25°C° 0.1 mm 2 m/S 755 mmHg 91%
    12:00 +25°C° 0.1 mm 2 m/S 755 mmHg 90%
    13:00 +25°C° 0 mm 2 m/S 754 mmHg 89%
    14:00 +24°C° 0 mm 3 m/S 754 mmHg 88%
    15:00 +24°C° 0 mm 3 m/S 754 mmHg 88%
    16:00 +22°C° 0 mm 3 m/S 754 mmHg 88%
    17:00 +22°C° 0 mm 3 m/S 754 mmHg 88%
    18:00 +21°C° 0 mm 3 m/S 754 mmHg 89%
    19:00 +20°C° 0 mm 3 m/S 755 mmHg 89%
    20:00 +20°C° 0 mm 3 m/S 755 mmHg 90%
    21:00 +19°C° 0 mm 2 m/S 756 mmHg 90%
    22:00 +19°C° 0 mm 3 m/S 756 mmHg 90%
    23:00 +19°C° 0 mm 3 m/S 756 mmHg 90%

    25 September, Dienstag

    Zeit Temperatur Niederschläge Wind Luftdruck Luftfeuchtigkeit
    00:00 +19°C° 0 mm 3 m/S 756 mmHg 90%
    01:00 +19°C° 0 mm 3 m/S 755 mmHg 90%
    02:00 +19°C° 0 mm 3 m/S 754 mmHg 89%
    03:00 +19°C° 0 mm 4 m/S 754 mmHg 89%
    04:00 +19°C° 0 mm 3 m/S 754 mmHg 90%
    05:00 +19°C° 0 mm 3 m/S 754 mmHg 90%
    06:00 +19°C° 0 mm 3 m/S 755 mmHg 90%
    07:00 +19°C° 0.1 mm 3 m/S 755 mmHg 90%
    08:00 +19°C° 0.1 mm 3 m/S 755 mmHg 89%
    09:00 +20°C° 0.1 mm 4 m/S 755 mmHg 88%
    10:00 +21°C° 0.1 mm 3 m/S 755 mmHg 86%
    11:00 +22°C° 0.1 mm 3 m/S 754 mmHg 85%
    12:00 +24°C° 0.1 mm 3 m/S 754 mmHg 83%
    13:00 +22°C° 0 mm 3 m/S 754 mmHg 84%
    14:00 +22°C° 0 mm 3 m/S 753 mmHg 85%
    15:00 +22°C° 0 mm 3 m/S 752 mmHg 87%
    16:00 +21°C° 0.4 mm 3 m/S 752 mmHg 90%
    17:00 +21°C° 0.4 mm 3 m/S 752 mmHg 93%
    18:00 +20°C° 0.4 mm 2 m/S 752 mmHg 96%
    19:00 +20°C° 0.8 mm 2 m/S 752 mmHg 96%
    20:00 +20°C° 0.8 mm 2 m/S 753 mmHg 97%
    21:00 +21°C° 0.8 mm 1 m/S 753 mmHg 98%
    22:00 +21°C° 0.6 mm 1 m/S 752 mmHg 98%
    23:00 +21°C° 0.6 mm 1 m/S 752 mmHg 98%

    26 September, Mittwoch

    Zeit Temperatur Niederschläge Wind Luftdruck Luftfeuchtigkeit
    00:00 +21°C° 0.6 mm 1 m/S 751 mmHg 99%
    01:00 +21°C° 0 mm 1 m/S 751 mmHg 99%
    02:00 +21°C° 0 mm 1 m/S 750 mmHg 98%
    03:00 +21°C° 0 mm 1 m/S 750 mmHg 98%
    04:00 +21°C° 0 mm 1 m/S 750 mmHg 98%
    05:00 +20°C° 0 mm 1 m/S 750 mmHg 98%
    06:00 +20°C° 0 mm 1 m/S 750 mmHg 98%
    07:00 +21°C° 0 mm 1 m/S 750 mmHg 96%
    08:00 +22°C° 0 mm 1 m/S 750 mmHg 93%
    09:00 +23°C° 0 mm 1 m/S 750 mmHg 91%
    10:00 +25°C° 0 mm 1 m/S 750 mmHg 84%
    11:00 +25°C° 0 mm 0 m/S 749 mmHg 77%
    12:00 +27°C° 0 mm 0 m/S 749 mmHg 70%
    13:00 +27°C° 0.1 mm 0 m/S 749 mmHg 70%
    14:00 +27°C° 0.1 mm 0 m/S 748 mmHg 69%
    15:00 +29°C° 0.1 mm 1 m/S 748 mmHg 68%
    16:00 +28°C° 0.1 mm 1 m/S 748 mmHg 73%
    17:00 +27°C° 0.1 mm 1 m/S 747 mmHg 79%
    18:00 +26°C° 0.1 mm 1 m/S 747 mmHg 84%
    19:00 +25°C° 0 mm 1 m/S 748 mmHg 88%
    20:00 +23°C° 0 mm 1 m/S 748 mmHg 91%
    21:00 +22°C° 0 mm 1 m/S 749 mmHg 94%
    22:00 +22°C° 0.1 mm 1 m/S 749 mmHg 95%
    23:00 +22°C° 0.1 mm 1 m/S 749 mmHg 95%
    Mehr zeigen